(145808) = 1998 SQ83 = 2005 ND56

Discovered at Socorro on 1998-09-26 by LINEAR.

Orbit

Orbit type: Main Belt

Note: WebGL enabled browser required.

epoch2023-09-13.0
epoch JD2460200.5
perihelion date2020-05-26.79755
perihelion JD2458996.29755
argument of perihelion (°)327.02500
ascending node (°)0.42881
inclination (°)2.91647
eccentricity0.1868795
perihelion distance (AU)1.9285731
Tisserand w.r.t. Jupiter3.5
ΔV w.r.t. Earth (km/sec)8.7
semimajor axis (AU)2.3718171
mean anomaly (°)324.92383
mean daily motion (°/day)0.26982490
aphelion distance (AU)2.815
period (years)3.65
P-vector [x]0.84295270
P-vector [y]-0.48192418
P-vector [z]-0.23912304
Q-vector [x]0.53798754
Q-vector [y]0.75542332
Q-vector [z]0.37403878
absolute magnitude16.58
phase slope0.15
uncertainty0
referenceMPEC 2024-A34
observations used656
oppositions16
arc length (days)9059
first opposition used1998
last opposition used2023
residual rms (arc-secs)0.76
perturbers coarse indicatorM-v
perturbers precise indicator003Ek
first observation date used1998-09-17.0
last observation date used2023-07-07.0
computer nameMPCLINUX
JD of orbit computation2456670.668619
perihelion JD uncertainty (days)6.0837E-05
argument of perihelion uncertainty (°)9.4213E-05
ascending node uncertainty (°)9.2988E-05
inclination uncertainty (°)5.3918E-06
eccentricity uncertainty 4.2104E-08
perihelion distance uncertainty (AU)9.8694E-08
Minimum Orbit Intersection Distances (in AU)
for orbit epoch: 2460200.5, reference: E2024-A34
Mercury1.51504
Venus1.20099
Earth0.91737
Mars0.54482
Jupiter2.51325
Saturn6.36912
Uranus15.6467
Neptune27.4875

Observations

674 total observations over interval: 1998 09 17.35837 – 2023 07 07.354718
These data are available for download (format description).

Date (UT) J2000 RA J2000 Dec Magn Location Ref
1998 09 17.35837 00 26 27.54 +02 51 27.7 18.2 R 699 – Lowell Observatory-LONEOS MPS 58695
1998 09 17.39199 00 26 25.58 +02 51 21.0   699 – Lowell Observatory-LONEOS MPS 58695
1998 09 17.41683 00 26 24.22 +02 51 17.4   699 – Lowell Observatory-LONEOS MPS 58695
1998 09 26.13561 00 18 22.88 +02 21 31.1 18.8   704 – Lincoln Laboratory ETS, New Mexico MPS 2743
1998 09 26.15211 00 18 21.99 +02 21 28.0 18.9   704 – Lincoln Laboratory ETS, New Mexico MPS 2743
1998 09 26.16886 00 18 20.95 +02 21 23.9 18.9   704 – Lincoln Laboratory ETS, New Mexico MPS 2743
1998 09 26.18541 00 18 19.97 +02 21 21.0 18.9   704 – Lincoln Laboratory ETS, New Mexico MPS 2743
1998 09 27.29394 00 17 17.11 +02 17 23.1 18.3   704 – Lincoln Laboratory ETS, New Mexico MPS 2743
1998 09 27.31143 00 17 16.11 +02 17 19.6 18.7   704 – Lincoln Laboratory ETS, New Mexico MPS 2743
1998 09 27.32942 00 17 14.96 +02 17 15.4 18.9   704 – Lincoln Laboratory ETS, New Mexico MPS 2743
1998 09 27.34686 00 17 14.01 +02 17 11.7 19.5   704 – Lincoln Laboratory ETS, New Mexico MPS 2743
1998 09 27.36476 00 17 12.95 +02 17 05.8 19.0   704 – Lincoln Laboratory ETS, New Mexico MPS 2743
1998 10 14.22508 00 02 56.70 +01 23 10.7 18.4 R 699 – Lowell Observatory-LONEOS MPS 77783
1998 10 14.24991 00 02 55.70 +01 23 06.0   699 – Lowell Observatory-LONEOS MPS 77783
1998 10 14.27477 00 02 54.50 +01 23 01.9   699 – Lowell Observatory-LONEOS MPS 77783
2002 11 24.27638 04 12 54.94 +25 44 07.9 19.5   644 – Palomar Mountain/NEAT MPS 139200
2002 11 24.29869 04 12 53.31 +25 44 04.7 19.9   644 – Palomar Mountain/NEAT MPS 139200
2002 11 24.32462 04 12 51.38 +25 44 01.2 19.8   644 – Palomar Mountain/NEAT MPS 139200
2002 12 11.24379 03 54 12.63 +24 55 21.9 19.4   704 – Lincoln Laboratory ETS, New Mexico MPS 139200
2002 12 11.25928 03 54 11.66 +24 55 18.5 19.6   704 – Lincoln Laboratory ETS, New Mexico MPS 139200
2002 12 11.27478 03 54 10.69 +24 55 16.0 19.7   704 – Lincoln Laboratory ETS, New Mexico MPS 139200
2002 12 11.29047 03 54 09.78 +24 55 12.8 19.3   704 – Lincoln Laboratory ETS, New Mexico MPS 139200
2005 07 10.60058 19 35 53.52 -27 17 51.5 18.6 V E12 – Siding Spring Survey MPS 138049
2005 07 10.60979 19 35 52.90 -27 17 52.1 18.8 V E12 – Siding Spring Survey MPS 138049
2005 07 10.61887 19 35 52.33 -27 17 53.3 18.1 V E12 – Siding Spring Survey MPS 138049
2005 07 12.98359 19 33 29.94 -27 22 02.1 18.1 R 620 – Observatorio Astronomico de Mallorca MPS 138049
2005 07 12.99068 19 33 29.44 -27 22 03.1 18.3 R 620 – Observatorio Astronomico de Mallorca MPS 138049
2005 07 12.99779 19 33 28.99 -27 22 03.5 18.1 R 620 – Observatorio Astronomico de Mallorca MPS 138049
2005 07 13.00551 19 33 28.48 -27 22 04.4 17.9 R 620 – Observatorio Astronomico de Mallorca MPS 138049
2005 07 13.01440 19 33 27.95 -27 22 05.6 18.5 R 620 – Observatorio Astronomico de Mallorca MPS 138049
2005 07 13.02208 19 33 27.39 -27 22 06.0 18.6 R 620 – Observatorio Astronomico de Mallorca MPS 138049
2005 07 13.02977 19 33 26.97 -27 22 06.8 18.1 R 620 – Observatorio Astronomico de Mallorca MPS 138049
2005 07 13.03688 19 33 26.45 -27 22 06.8 18.3 R 620 – Observatorio Astronomico de Mallorca MPS 138049
2005 07 13.04397 19 33 26.05 -27 22 07.4 18.7 R 620 – Observatorio Astronomico de Mallorca MPS 138049
2005 07 13.05113 19 33 25.53 -27 22 08.4 18.7 R 620 – Observatorio Astronomico de Mallorca MPS 138049
2005 07 13.05825 19 33 25.01 -27 22 09.0 17.4 R 620 – Observatorio Astronomico de Mallorca MPS 138049
2005 07 13.06555 19 33 24.69 -27 22 09.4 17.8 R 620 – Observatorio Astronomico de Mallorca MPS 138049
2005 07 13.51605 19 32 57.75 -27 22 43.1 18.2 V 428 – Reedy Creek MPS 138502
2005 07 13.57221 19 32 54.19 -27 22 47.9 18.4 V 428 – Reedy Creek MPS 138502
2005 07 14.56282 19 31 53.85 -27 24 13.9 18.2 V 428 – Reedy Creek MPS 138502
2005 07 14.59488 19 31 51.77 -27 24 16.5 17.9 V 428 – Reedy Creek MPS 138502
2005 07 17.51399 19 28 54.62 -27 27 49.8 18.0 V E12 – Siding Spring Survey MPS 138502
2005 07 17.52079 19 28 54.26 -27 27 49.5 18.3 V E12 – Siding Spring Survey MPS 138502
2005 07 17.52757 19 28 53.76 -27 27 50.6 17.8 V E12 – Siding Spring Survey MPS 138502
2005 07 17.53451 19 28 53.32 -27 27 51.0 18.6 V E12 – Siding Spring Survey MPS 138502
2005 08 06.15792 19 12 03.21 -27 23 51.1 18.6   704 – Lincoln Laboratory ETS, New Mexico MPS 139369
2005 08 06.16998 19 12 02.62 -27 23 49.7 18.9   704 – Lincoln Laboratory ETS, New Mexico MPS 139369
2005 08 06.18202 19 12 02.11 -27 23 49.8 19.6   704 – Lincoln Laboratory ETS, New Mexico MPS 139369
2006 11 22.35715 07 39 40.28 +25 33 27.8 20.9   G96 – Mt. Lemmon Survey MPS 188269
2006 11 22.36616 07 39 40.17 +25 33 28.7 20.9   G96 – Mt. Lemmon Survey MPS 188269
2006 11 22.37512 07 39 40.06 +25 33 29.8 20.9   G96 – Mt. Lemmon Survey MPS 188269
2006 11 22.38409 07 39 39.92 +25 33 30.8 20.8   G96 – Mt. Lemmon Survey MPS 188269
2006 12 10.41280 07 30 38.82 +26 13 31.6   691 – Steward Observatory, Kitt Peak-Spacewatch MPS 191734
2006 12 10.43019 07 30 38.00 +26 13 34.1   691 – Steward Observatory, Kitt Peak-Spacewatch MPS 191734
2006 12 10.44758 07 30 37.12 +26 13 36.8   691 – Steward Observatory, Kitt Peak-Spacewatch MPS 191734
2006 12 14.39289 07 27 19.51 +26 23 34.9 20.7 V 691 – Steward Observatory, Kitt Peak-Spacewatch MPS 191734
2006 12 14.41035 07 27 18.53 +26 23 37.1 20.5 V 691 – Steward Observatory, Kitt Peak-Spacewatch MPS 191734
2006 12 14.42774 07 27 17.58 +26 23 39.9 20.7 V 691 – Steward Observatory, Kitt Peak-Spacewatch MPS 191734
2006 12 21.27991 07 20 38.81 +26 40 34.6 20.4 V 691 – Steward Observatory, Kitt Peak-Spacewatch MPS 191734
2006 12 21.29733 07 20 37.71 +26 40 37.1 20.5 V 691 – Steward Observatory, Kitt Peak-Spacewatch MPS 191734
2006 12 21.31474 07 20 36.59 +26 40 39.5 20.5 V 691 – Steward Observatory, Kitt Peak-Spacewatch MPS 191734
2006 12 25.27479 07 16 20.37 +26 49 42.9 20.9 V 691 – Steward Observatory, Kitt Peak-Spacewatch MPS 191734
2006 12 25.29217 07 16 19.09 +26 49 45.8 20.4 V 691 – Steward Observatory, Kitt Peak-Spacewatch MPS 191734
2006 12 25.30953 07 16 17.87 +26 49 47.7 20.4 V 691 – Steward Observatory, Kitt Peak-Spacewatch MPS 191734
2008 03 10.38583 13 07 59.25 -07 52 22.1 20.0 V 691 – Steward Observatory, Kitt Peak-Spacewatch MPS 243384
2008 03 10.40354 13 07 58.52 -07 52 19.4 20.3 V 691 – Steward Observatory, Kitt Peak-Spacewatch MPS 243384
2008 03 10.42124 13 07 57.81 -07 52 16.4 20.3 V 691 – Steward Observatory, Kitt Peak-Spacewatch MPS 243384
2008 03 15.42737 13 04 20.49 -07 36 11.3 20.2 V G96 – Mt. Lemmon Survey MPS 243933
2008 03 15.43173 13 04 20.24 -07 36 10.5 20.0 V G96 – Mt. Lemmon Survey MPS 243933
2008 03 15.43608 13 04 20.06 -07 36 09.3 20.1 V G96 – Mt. Lemmon Survey MPS 243933
2008 03 15.44049 13 04 19.84 -07 36 08.5 20.1 V G96 – Mt. Lemmon Survey MPS 243933
2008 03 27.30646 12 54 00.03 -06 46 41.3 20.1 V G96 – Mt. Lemmon Survey MPS 244493
2008 03 27.31625 12 53 59.42 -06 46 38.5 19.8 V G96 – Mt. Lemmon Survey MPS 244493
2008 03 27.32603 12 53 58.88 -06 46 35.6 19.8 V G96 – Mt. Lemmon Survey MPS 244493
2008 03 27.33585 12 53 58.30 -06 46 32.9 19.7 V G96 – Mt. Lemmon Survey MPS 244493
2008 04 03.31528 12 47 12.30 -06 12 22.4 19.9 V G96 – Mt. Lemmon Survey MPS 245549
2008 04 03.32306 12 47 11.83 -06 12 20.0 19.6 V G96 – Mt. Lemmon Survey MPS 245549
2008 04 03.33091 12 47 11.36 -06 12 17.8 19.6 V G96 – Mt. Lemmon Survey MPS 245549
2008 04 03.33879 12 47 10.86 -06 12 15.2 19.6 V G96 – Mt. Lemmon Survey MPS 245549
2008 04 04.34987 12 46 11.20 -06 07 09.3 19.2 V 703 – Catalina Sky Survey MPS 246577
2008 04 04.35527 12 46 10.84 -06 07 06.8 20.1 V 703 – Catalina Sky Survey MPS 246577
2008 04 04.36066 12 46 10.45 -06 07 03.9 19.6 V 703 – Catalina Sky Survey MPS 246577
2008 04 04.36604 12 46 10.05 -06 07 03.1 19.7 V 703 – Catalina Sky Survey MPS 246577
2008 04 06.31834 12 44 15.13 -05 57 08.9 20.1   704 – Lincoln Laboratory ETS, New Mexico MPS 246577
2008 04 06.32991 12 44 14.41 -05 57 03.7 20.4   704 – Lincoln Laboratory ETS, New Mexico MPS 246577
2008 04 06.34144 12 44 13.61 -05 57 00.5 20.2   704 – Lincoln Laboratory ETS, New Mexico MPS 246577
2008 04 06.35295 12 44 12.98 -05 56 57.4 19.7   704 – Lincoln Laboratory ETS, New Mexico MPS 246577
